contact:dominique.lefevre@mio.osupytheas.fr, maurice.libes@osupytheas.fr, didier.mallarino@osupytheas.fr
Project:EMSO http://www.emso-fr.org/EMSO-France
Depth: 2436.0 m
Title:EMSO Ligure Ouest : Data MII capteur AQUADOPP
Date,Latitude,Longitude,X_East,Y_North,Z_Up,Amplitude_X,Amplitude_Y,Amplitude_Z,Batterie,SoundSpeed,Heading,Pitch,Roll,Pressure,TIS,Speed,Direction
, degrees North, degrees East, m.s-1, m.s-1,m.s-1, 1, 1, 1, Volt, m.s-1, degree, degree, degree, dbar, degree_C, m.s-1, degree
2019-07-07T00:09:04,42.805,6.029,-0.032,0.02,-0.045,101.0,106.0,98.0,13.3,1505.3,326.7,-0.8,1.8,2470.263,13.31,0.037,302.0
2019-07-07T00:12:05,42.805,6.029,-0.016,0.019,-0.044,103.0,105.0,99.0,13.4,1505.3,327.7,-0.7,1.8,2470.252,13.32,0.024,319.9
2019-07-07T00:15:06,42.805,6.029,-0.008,0.023,-0.027,103.0,106.0,99.0,13.4,1505.3,324.3,-0.7,1.8,2470.237,13.32,0.024,340.8
2019-07-07T00:18:07,42.805,6.029,-0.008,0.008,-0.017,103.0,107.0,101.0,13.4,1505.3,324.8,-0.7,1.9,2470.22,13.33,0.011,315.0
2019-07-07T00:21:08,42.805,6.029,-0.003,0.018,-0.031,101.0,106.0,99.0,13.3,1505.3,324.8,-0.7,1.9,2470.211,13.33,0.018,350.5
2019-07-07T00:24:09,42.805,6.029,0.003,0.01,-0.022,102.0,107.0,98.0,13.4,1505.4,323.8,-0.7,1.8,2470.195,13.34,0.01,16.7
2019-07-07T00:27:10,42.805,6.029,-0.012,-0.007,-0.064,102.0,106.0,101.0,13.4,1505.4,328.6,-0.7,1.8,2470.275,13.34,0.013,239.7
2019-07-07T00:30:11,42.805,6.029,-0.022,-0.003,-0.017,103.0,106.0,98.0,13.4,1505.4,326.6,-0.7,1.8,2470.149,13.34,0.022,262.2
2019-07-07T00:33:12,42.805,6.029,-0.032,0.007,-0.051,101.0,109.0,99.0,13.4,1505.4,323.3,-0.7,1.8,2470.223,13.34,0.032,282.3
2019-07-07T00:36:13,42.805,6.029,-0.016,0.022,-0.006,103.0,107.0,98.0,13.4,1505.4,324.7,-0.7,1.8,2470.206,13.34,0.027,324.0
2019-07-07T00:39:14,42.805,6.029,0.0,-0.003,-0.025,101.0,105.0,99.0,13.3,1505.4,324.9,-0.7,1.8,2470.171,13.34,0.003,180.0
2019-07-07T00:42:15,42.805,6.029,-0.013,0.011,-0.017,103.0,106.0,101.0,13.4,1505.4,326.1,-0.7,1.9,2470.179,13.34,0.017,310.2
2019-07-07T00:45:16,42.805,6.029,0.004,0.003,-0.029,102.0,106.0,98.0,13.4,1505.4,324.9,-0.7,1.8,2470.202,13.34,0.005,53.1
2019-07-07T00:48:17,42.805,6.029,-0.026,-0.002,-0.02,103.0,106.0,98.0,13.4,1505.4,323.8,-0.7,1.8,2470.187,13.34,0.026,265.6
2019-07-07T00:51:18,42.805,6.029,-0.022,0.002,-0.045,103.0,107.0,101.0,13.4,1505.4,328.4,-0.7,1.9,2470.151,13.34,0.022,275.2
2019-07-07T00:54:19,42.805,6.029,-0.006,0.017,-0.026,103.0,106.0,99.0,13.3,1505.4,325.9,-0.7,1.9,2470.127,13.34,0.018,340.6
2019-07-07T00:57:20,42.805,6.029,-0.039,0.003,-0.049,102.0,106.0,100.0,13.4,1505.4,323.0,-0.7,1.8,2470.16,13.34,0.039,274.4
2019-07-07T01:00:21,42.805,6.029,-0.007,0.022,-0.001,102.0,106.0,99.0,13.4,1505.4,324.4,-0.7,1.8,2470.14,13.34,0.023,342.4
2019-07-07T01:03:22,42.805,6.029,-0.038,0.006,-0.009,103.0,106.0,99.0,13.4,1505.4,324.2,-0.7,1.8,2470.167,13.34,0.038,279.0
2019-07-07T01:06:23,42.805,6.029,-0.049,-0.009,-0.033,104.0,105.0,99.0,13.3,1505.4,326.5,-0.7,1.9,2470.198,13.34,0.049,259.6
2019-07-07T01:09:24,42.805,6.029,-0.013,0.007,-0.013,104.0,107.0,100.0,13.4,1505.4,324.1,-0.8,1.8,2470.158,13.34,0.014,298.3
2019-07-07T01:12:25,42.805,6.029,-0.032,-0.005,-0.019,107.0,105.0,100.0,13.4,1505.4,324.9,-0.7,1.8,2470.161,13.34,0.032,261.1
2019-07-07T01:15:26,42.805,6.029,-0.011,0.019,-0.025,102.0,106.0,100.0,13.3,1505.4,324.7,-0.8,1.8,2470.18,13.34,0.021,329.9
2019-07-07T01:18:27,42.805,6.029,-0.004,0.0,-0.039,105.0,104.0,99.0,13.4,1505.4,322.9,-0.8,1.8,2470.157,13.34,0.004,270.0
2019-07-07T01:21:28,42.805,6.029,-0.045,-0.01,-0.038,102.0,105.0,101.0,13.3,1505.4,328.1,-0.7,1.8,2470.162,13.34,0.046,257.5
2019-07-07T01:24:29,42.805,6.029,-0.029,0.005,-0.048,104.0,106.0,99.0,13.3,1505.4,326.5,-0.7,1.8,2470.152,13.34,0.029,279.8
2019-07-07T01:27:30,42.805,6.029,-0.033,0.003,-0.059,103.0,105.0,100.0,13.4,1505.4,325.9,-0.7,1.8,2470.14,13.34,0.033,275.2
2019-07-07T01:30:31,42.805,6.029,-0.019,0.017,-0.006,104.0,107.0,99.0,13.4,1505.4,322.6,-0.7,1.8,2470.142,13.34,0.025,311.8
2019-07-07T01:33:32,42.805,6.029,-0.006,-0.002,-0.032,102.0,107.0,99.0,13.4,1505.4,326.4,-0.8,1.8,2470.126,13.34,0.006,251.6
2019-07-07T01:36:33,42.805,6.029,-0.039,0.016,-0.047,103.0,107.0,99.0,13.3,1505.4,324.2,-0.8,1.8,2470.132,13.34,0.042,292.3
2019-07-07T01:39:34,42.805,6.029,-0.025,0.007,-0.03,104.0,106.0,98.0,13.3,1505.4,326.6,-0.8,1.9,2470.138,13.34,0.025,285.6
2019-07-07T01:42:35,42.805,6.029,-0.019,0.016,-0.065,103.0,109.0,99.0,13.3,1505.4,324.8,-0.7,1.8,2470.116,13.34,0.024,310.1
2019-07-07T01:45:36,42.805,6.029,-0.032,0.02,-0.031,105.0,106.0,99.0,13.4,1505.4,327.5,-0.7,1.8,2470.141,13.34,0.037,302.0
2019-07-07T01:48:37,42.805,6.029,-0.028,-0.002,-0.015,103.0,105.0,97.0,13.3,1505.4,324.8,-0.7,1.8,2470.132,13.34,0.028,265.9
2019-07-07T01:51:38,42.805,6.029,-0.046,0.005,-0.033,101.0,105.0,100.0,13.4,1505.4,326.9,-0.7,1.8,2470.15,13.34,0.046,276.2
2019-07-07T01:54:39,42.805,6.029,-0.03,0.038,-0.069,102.0,108.0,98.0,13.4,1505.4,323.5,-0.7,1.9,2470.132,13.34,0.048,321.7
2019-07-07T01:57:40,42.805,6.029,-0.037,0.01,-0.021,106.0,106.0,99.0,13.4,1505.4,324.0,-0.7,1.8,2470.152,13.34,0.038,285.1
2019-07-07T02:00:41,42.805,6.029,-0.033,0.01,-0.063,104.0,107.0,99.0,13.3,1505.4,324.4,-0.7,1.8,2470.109,13.34,0.034,286.9
2019-07-07T02:03:42,42.805,6.029,-0.039,0.013,-0.054,102.0,105.0,98.0,13.3,1505.4,327.0,-0.7,1.8,2470.106,13.34,0.041,288.4
2019-07-07T02:06:43,42.805,6.029,-0.037,-0.006,-0.077,102.0,107.0,100.0,13.3,1505.4,324.8,-0.7,1.8,2470.077,13.34,0.037,260.8
2019-07-07T02:09:44,42.805,6.029,-0.059,0.014,-0.06,103.0,105.0,99.0,13.4,1505.4,325.7,-0.7,1.9,2470.131,13.34,0.06,283.3
2019-07-07T02:12:45,42.805,6.029,-0.054,0.006,-0.06,102.0,106.0,100.0,13.4,1505.4,323.8,-0.7,1.9,2470.076,13.34,0.054,276.3
2019-07-07T02:15:46,42.805,6.029,-0.038,-0.007,-0.039,103.0,105.0,99.0,13.4,1505.4,326.5,-0.7,1.8,2470.108,13.34,0.038,259.6
2019-07-07T02:18:47,42.805,6.029,-0.06,-0.005,-0.065,101.0,105.0,100.0,13.3,1505.4,326.5,-0.7,1.9,2470.107,13.34,0.06,265.2
2019-07-07T02:21:48,42.805,6.029,-0.042,-0.015,-0.067,103.0,103.0,100.0,13.4,1505.4,325.1,-0.7,1.8,2470.132,13.34,0.044,250.4
2019-07-07T02:24:49,42.805,6.029,-0.039,-0.005,-0.073,103.0,106.0,99.0,13.4,1505.4,327.1,-0.7,1.8,2470.064,13.34,0.039,262.7
2019-07-07T02:27:50,42.805,6.029,-0.009,0.024,-0.057,102.0,104.0,98.0,13.4,1505.4,323.0,-0.7,1.8,2470.086,13.34,0.025,339.4
2019-07-07T02:30:51,42.805,6.029,-0.035,0.011,-0.028,100.0,104.0,98.0,13.4,1505.4,327.6,-0.7,1.9,2470.073,13.34,0.036,287.4
2019-07-07T02:33:52,42.805,6.029,-0.034,-0.005,-0.047,104.0,106.0,101.0,13.4,1505.4,324.4,-0.7,1.8,2470.062,13.34,0.034,261.6
2019-07-07T02:36:53,42.805,6.029,-0.038,-0.007,-0.067,103.0,103.0,98.0,13.3,1505.4,325.3,-0.7,1.9,2470.057,13.34,0.038,259.6
2019-07-07T02:39:54,42.805,6.029,-0.023,0.012,-0.026,102.0,104.0,98.0,13.4,1505.4,326.4,-0.7,1.8,2470.05,13.34,0.025,297.6
2019-07-07T02:42:55,42.805,6.029,-0.048,-0.008,-0.07,103.0,104.0,98.0,13.4,1505.4,325.8,-0.8,1.9,2470.083,13.34,0.048,260.5
2019-07-07T02:45:56,42.805,6.029,-0.039,0.002,-0.078,102.0,106.0,97.0,13.3,1505.4,323.7,-0.7,1.8,2470.056,13.34,0.039,272.9
2019-07-07T02:48:57,42.805,6.029,-0.027,0.003,-0.04,102.0,104.0,99.0,13.4,1505.4,327.5,-0.8,1.8,2470.053,13.34,0.027,276.3
2019-07-07T02:51:58,42.805,6.029,-0.017,0.001,-0.064,100.0,107.0,99.0,13.4,1505.4,328.6,-0.7,1.9,2470.132,13.34,0.017,273.4
2019-07-07T02:54:59,42.805,6.029,-0.043,0.027,-0.023,100.0,105.0,98.0,13.4,1505.4,324.2,-0.7,1.8,2470.049,13.34,0.05,302.1
2019-07-07T02:58:00,42.805,6.029,-0.015,-0.005,-0.042,102.0,106.0,99.0,13.4,1505.4,323.3,-0.7,1.9,2470.079,13.34,0.015,251.6
2019-07-07T03:01:01,42.805,6.029,-0.036,0.001,-0.064,103.0,105.0,98.0,13.4,1505.4,327.3,-0.7,1.8,2470.078,13.34,0.036,271.6
2019-07-07T03:04:02,42.805,6.029,-0.03,0.02,-0.031,102.0,105.0,99.0,13.4,1505.4,326.1,-0.7,1.9,2470.052,13.34,0.036,303.7
2019-07-07T03:07:03,42.805,6.029,-0.024,0.008,-0.021,101.0,105.0,101.0,13.4,1505.4,327.7,-0.7,1.8,2470.043,13.34,0.025,288.4
2019-07-07T03:10:04,42.805,6.029,-0.012,-0.001,-0.004,103.0,103.0,100.0,13.4,1505.4,326.3,-0.7,1.8,2470.038,13.34,0.012,265.2
2019-07-07T03:13:05,42.805,6.029,-0.016,0.001,-0.042,103.0,106.0,98.0,13.4,1505.4,327.0,-0.7,1.9,2470.071,13.34,0.016,273.6
2019-07-07T03:16:06,42.805,6.029,-0.043,0.009,-0.033,102.0,106.0,99.0,13.4,1505.4,325.2,-0.7,1.9,2470.053,13.34,0.043,281.8
2019-07-07T03:19:07,42.805,6.029,-0.024,0.013,-0.03,101.0,104.0,99.0,13.4,1505.4,326.3,-0.8,1.9,2470.016,13.34,0.027,298.4
2019-07-07T03:22:08,42.805,6.029,-0.045,-0.005,-0.038,104.0,105.0,98.0,13.4,1505.4,325.9,-0.7,1.9,2470.015,13.34,0.045,263.7
2019-07-07T03:25:09,42.805,6.029,-0.023,0.002,-0.043,104.0,105.0,99.0,13.3,1505.4,324.7,-0.7,1.8,2470.048,13.34,0.023,275.0
2019-07-07T03:28:10,42.805,6.029,-0.028,-0.013,-0.058,101.0,105.0,98.0,13.3,1505.4,324.8,-0.7,1.8,2470.021,13.34,0.03,245.1
2019-07-07T03:31:11,42.805,6.029,-0.023,0.019,-0.019,102.0,105.0,99.0,13.3,1505.4,326.0,-0.7,1.9,2470.047,13.34,0.029,309.6
2019-07-07T03:34:12,42.805,6.029,-0.021,0.013,-0.032,103.0,106.0,99.0,13.4,1505.4,325.2,-0.7,1.9,2470.026,13.34,0.024,301.8
2019-07-07T03:37:13,42.805,6.029,-0.03,-0.015,-0.058,103.0,104.0,99.0,13.4,1505.4,323.3,-0.7,1.8,2470.031,13.34,0.033,243.4
2019-07-07T03:40:14,42.805,6.029,-0.003,-0.001,-0.007,103.0,106.0,101.0,13.4,1505.4,325.8,-0.7,1.8,2470.072,13.34,0.003,251.6
2019-07-07T03:43:15,42.805,6.029,-0.005,0.007,-0.045,103.0,105.0,99.0,13.3,1505.4,325.4,-0.7,1.8,2470.031,13.34,0.008,324.5
2019-07-07T03:46:16,42.805,6.029,-0.031,0.019,-0.065,102.0,105.0,99.0,13.4,1505.4,325.9,-0.8,1.8,2470.033,13.34,0.036,301.5
2019-07-07T03:49:17,42.805,6.029,-0.033,0.001,-0.059,101.0,105.0,98.0,13.4,1505.4,325.9,-0.7,1.8,2470.004,13.34,0.033,271.7
2019-07-07T03:52:18,42.805,6.029,-0.036,0.014,-0.036,101.0,103.0,98.0,13.3,1505.4,328.6,-0.8,1.8,2470.009,13.34,0.038,291.2
2019-07-07T03:55:19,42.805,6.029,-0.052,0.016,-0.054,102.0,105.0,98.0,13.3,1505.4,327.2,-0.7,1.8,2469.98,13.34,0.054,287.1
2019-07-07T03:58:20,42.805,6.029,-0.032,0.0,-0.044,102.0,104.0,98.0,13.4,1505.4,327.0,-0.7,1.8,2469.995,13.34,0.032,270.0
2019-07-07T04:01:21,42.805,6.029,-0.044,0.012,-0.064,102.0,106.0,99.0,13.3,1505.4,326.1,-0.8,1.9,2470.051,13.34,0.045,285.3
2019-07-07T04:04:22,42.805,6.029,-0.018,0.016,-0.03,101.0,105.0,98.0,13.4,1505.4,324.5,-0.7,1.8,2470.025,13.34,0.024,311.6
2019-07-07T04:07:23,42.805,6.029,-0.047,0.002,-0.039,102.0,103.0,98.0,13.4,1505.4,325.1,-0.7,1.8,2470.032,13.34,0.047,272.4
2019-07-07T04:10:24,42.805,6.029,-0.068,0.006,-0.066,100.0,105.0,98.0,13.4,1505.4,326.4,-0.7,1.8,2470.015,13.34,0.068,275.0
2019-07-07T04:13:25,42.805,6.029,-0.015,-0.002,-0.066,101.0,107.0,98.0,13.3,1505.4,326.0,-0.7,1.9,2469.996,13.34,0.015,262.4
2019-07-07T04:16:26,42.805,6.029,-0.031,0.002,-0.048,101.0,105.0,98.0,13.4,1505.4,326.6,-0.7,1.9,2470.025,13.34,0.031,273.7
2019-07-07T04:19:27,42.805,6.029,-0.041,0.004,-0.039,103.0,105.0,98.0,13.4,1505.4,327.6,-0.8,1.9,2470.038,13.34,0.041,275.6
2019-07-07T04:22:28,42.805,6.029,-0.05,-0.029,-0.092,100.0,104.0,99.0,13.4,1505.4,324.8,-0.7,1.8,2469.992,13.34,0.057,239.9
2019-07-07T04:25:29,42.805,6.029,-0.002,0.009,-0.015,102.0,104.0,97.0,13.4,1505.4,324.3,-0.7,1.8,2469.942,13.34,0.009,347.5
2019-07-07T04:28:30,42.805,6.029,-0.053,-0.014,-0.034,102.0,103.0,98.0,13.4,1505.4,326.6,-0.7,1.8,2469.939,13.34,0.054,255.2
2019-07-07T04:31:31,42.805,6.029,-0.015,0.021,-0.044,101.0,104.0,97.0,13.4,1505.4,324.8,-0.7,1.8,2470.016,13.34,0.025,324.5
2019-07-07T04:34:32,42.805,6.029,-0.051,0.004,-0.071,101.0,103.0,99.0,13.4,1505.4,324.4,-0.7,1.8,2469.982,13.34,0.051,274.5
2019-07-07T04:37:33,42.805,6.029,-0.04,0.001,-0.082,104.0,103.0,97.0,13.4,1505.4,323.2,-0.7,1.9,2469.999,13.34,0.04,271.4
2019-07-07T04:40:34,42.805,6.029,-0.009,0.019,-0.051,102.0,104.0,97.0,13.4,1505.4,325.6,-0.8,1.8,2469.992,13.34,0.021,334.7
2019-07-07T04:43:35,42.805,6.029,-0.015,0.004,-0.067,101.0,104.0,98.0,13.3,1505.4,326.0,-0.7,1.8,2469.922,13.34,0.015,284.9
2019-07-07T04:46:36,42.805,6.029,-0.033,-0.007,-0.05,100.0,106.0,98.0,13.4,1505.4,323.4,-0.7,1.9,2469.976,13.34,0.033,258.0
2019-07-07T04:49:37,42.805,6.029,-0.014,0.01,-0.056,102.0,104.0,96.0,13.4,1505.4,325.4,-0.7,1.8,2469.997,13.34,0.017,305.5
2019-07-07T04:52:38,42.805,6.029,-0.011,-0.007,-0.055,100.0,106.0,99.0,13.4,1505.4,325.6,-0.8,1.8,2470.01,13.34,0.013,237.5
2019-07-07T04:55:39,42.805,6.029,-0.032,0.015,-0.042,101.0,103.0,99.0,13.4,1505.4,325.0,-0.7,1.8,2469.981,13.34,0.035,295.1
2019-07-07T04:58:40,42.805,6.029,-0.002,-0.007,-0.036,101.0,106.0,99.0,13.3,1505.4,326.6,-0.7,1.8,2469.965,13.34,0.007,195.9
2019-07-07T05:01:41,42.805,6.029,-0.009,0.013,-0.029,102.0,104.0,97.0,13.4,1505.4,323.7,-0.7,1.9,2469.945,13.34,0.015,325.3
2019-07-07T05:04:42,42.805,6.029,0.005,0.013,-0.009,101.0,107.0,98.0,13.3,1505.4,327.2,-0.7,1.9,2469.984,13.34,0.013,21.0
2019-07-07T05:07:43,42.805,6.029,-0.002,-0.002,-0.03,101.0,102.0,99.0,13.4,1505.4,324.7,-0.8,1.8,2469.97,13.34,0.002,225.0
2019-07-07T05:10:44,42.805,6.029,0.0,0.003,-0.021,101.0,107.0,96.0,13.4,1505.4,327.2,-0.7,1.9,2470.016,13.34,0.003,0.0
2019-07-07T05:13:45,42.805,6.029,-0.009,0.0,-0.033,102.0,103.0,96.0,13.4,1505.4,327.7,-0.7,1.9,2469.997,13.34,0.009,270.0
2019-07-07T05:16:46,42.805,6.029,0.0,-0.009,0.006,100.0,103.0,98.0,13.3,1505.4,324.7,-0.7,1.8,2470.001,13.34,0.009,180.0
2019-07-07T05:19:47,42.805,6.029,-0.006,0.006,-0.006,101.0,104.0,98.0,13.4,1505.4,324.1,-0.7,1.9,2469.999,13.34,0.008,315.0
2019-07-07T05:22:48,42.805,6.029,0.0,0.006,-0.041,101.0,105.0,98.0,13.4,1505.4,327.5,-0.7,1.8,2469.963,13.34,0.006,0.0
2019-07-07T05:25:49,42.805,6.029,-0.009,0.009,-0.029,102.0,105.0,98.0,13.4,1505.4,326.9,-0.7,1.8,2470.022,13.34,0.012,315.0
2019-07-07T05:28:50,42.805,6.029,-0.02,-0.004,-0.049,102.0,104.0,100.0,13.4,1505.4,325.8,-0.7,1.9,2470.001,13.34,0.02,258.7
2019-07-07T05:31:51,42.805,6.029,-0.019,0.011,-0.018,102.0,103.0,98.0,13.3,1505.4,324.3,-0.7,1.9,2469.967,13.34,0.021,300.1
2019-07-07T05:34:52,42.805,6.029,-0.023,-0.011,-0.066,103.0,102.0,98.0,13.4,1505.4,326.8,-0.7,1.9,2469.93,13.34,0.025,244.4
2019-07-07T05:37:53,42.805,6.029,-0.029,0.006,-0.049,101.0,106.0,100.0,13.3,1505.4,326.5,-0.7,1.8,2469.979,13.34,0.029,281.7
2019-07-07T05:40:54,42.805,6.029,-0.049,-0.017,-0.052,100.0,103.0,100.0,13.4,1505.4,324.5,-0.8,1.8,2469.933,13.34,0.051,250.9
2019-07-07T05:43:55,42.805,6.029,-0.04,-0.009,-0.039,102.0,104.0,98.0,13.4,1505.4,325.2,-0.7,1.9,2469.976,13.34,0.041,257.3
2019-07-07T05:46:56,42.805,6.029,-0.013,-0.006,-0.073,100.0,105.0,97.0,13.3,1505.4,326.4,-0.8,1.8,2470.034,13.34,0.014,245.2
2019-07-07T05:49:57,42.805,6.029,-0.027,-0.006,-0.014,102.0,104.0,99.0,13.4,1505.4,326.6,-0.7,1.9,2469.985,13.34,0.027,257.5
2019-07-07T05:52:58,42.805,6.029,-0.001,0.006,-0.047,102.0,104.0,100.0,13.4,1505.4,324.5,-0.7,1.8,2469.992,13.34,0.006,350.5
2019-07-07T05:55:59,42.805,6.029,-0.007,-0.011,-0.057,102.0,105.0,98.0,13.3,1505.4,323.9,-0.7,1.8,2469.935,13.34,0.013,212.5
2019-07-07T05:59:00,42.805,6.029,-0.046,-0.014,-0.073,102.0,103.0,98.0,13.3,1505.4,324.1,-0.8,1.8,2469.934,13.34,0.048,253.1
2019-07-07T06:02:01,42.805,6.029,-0.032,-0.004,-0.053,102.0,104.0,101.0,13.4,1505.4,326.5,-0.7,1.8,2469.946,13.34,0.032,262.9
2019-07-07T06:05:02,42.805,6.029,-0.011,-0.017,-0.05,102.0,105.0,98.0,13.4,1505.4,325.5,-0.7,1.9,2469.973,13.34,0.02,212.9
2019-07-07T06:08:03,42.805,6.029,-0.04,0.004,-0.047,101.0,104.0,98.0,13.4,1505.4,327.4,-0.8,1.8,2469.936,13.34,0.04,275.7
2019-07-07T06:11:04,42.805,6.029,-0.046,0.005,-0.085,100.0,103.0,99.0,13.3,1505.4,325.1,-0.7,1.8,2469.984,13.34,0.046,276.2
2019-07-07T06:14:05,42.805,6.029,-0.007,0.018,-0.06,99.0,103.0,98.0,13.4,1505.4,323.1,-0.7,1.8,2469.99,13.34,0.019,338.8
2019-07-07T06:17:06,42.805,6.029,0.0,-0.003,-0.028,102.0,105.0,97.0,13.4,1505.4,326.3,-0.7,1.8,2469.966,13.34,0.003,180.0
2019-07-07T06:20:07,42.805,6.029,-0.037,0.011,-0.072,102.0,103.0,96.0,13.4,1505.4,326.0,-0.7,1.8,2469.998,13.34,0.038,286.6
2019-07-07T06:23:08,42.805,6.029,-0.018,-0.005,-0.042,103.0,104.0,97.0,13.3,1505.4,322.8,-0.7,1.8,2470.001,13.34,0.018,254.5
2019-07-07T06:26:09,42.805,6.029,-0.018,-0.009,-0.044,102.0,106.0,99.0,13.3,1505.4,328.1,-0.7,1.8,2469.986,13.34,0.02,243.4
2019-07-07T06:29:10,42.805,6.029,-0.019,0.0,-0.061,101.0,105.0,99.0,13.4,1505.4,327.3,-0.7,1.8,2469.944,13.34,0.019,270.0
2019-07-07T06:32:11,42.805,6.029,-0.036,0.009,-0.076,100.0,104.0,97.0,13.4,1505.4,324.8,-0.7,1.8,2469.955,13.34,0.037,284.0
2019-07-07T06:35:12,42.805,6.029,-0.038,-0.009,-0.028,102.0,104.0,98.0,13.4,1505.4,325.3,-0.7,1.9,2469.983,13.34,0.039,256.7
2019-07-07T06:38:13,42.805,6.029,-0.033,-0.013,-0.08,100.0,105.0,98.0,13.4,1505.4,326.8,-0.7,1.8,2469.968,13.34,0.035,248.5
2019-07-07T06:41:14,42.805,6.029,-0.015,-0.01,0.003,103.0,105.0,98.0,13.4,1505.4,325.3,-0.7,1.8,2469.995,13.34,0.018,236.3
2019-07-07T06:44:15,42.805,6.029,-0.042,-0.003,-0.043,102.0,106.0,99.0,13.4,1505.4,323.3,-0.7,1.8,2469.958,13.34,0.042,265.9
2019-07-07T06:47:16,42.805,6.029,-0.016,-0.013,-0.043,102.0,104.0,99.0,13.4,1505.4,327.4,-0.7,1.8,2469.949,13.34,0.02,230.9
2019-07-07T06:50:17,42.805,6.029,-0.039,-0.021,-0.052,103.0,104.0,99.0,13.4,1505.4,326.6,-0.7,1.8,2469.999,13.34,0.044,241.7
2019-07-07T06:53:18,42.805,6.029,-0.036,0.003,-0.033,102.0,104.0,99.0,13.4,1505.4,323.6,-0.7,1.9,2470.016,13.34,0.036,274.8
2019-07-07T06:56:19,42.805,6.029,-0.027,-0.019,-0.056,101.0,105.0,98.0,13.4,1505.4,326.0,-0.7,1.8,2470.008,13.34,0.033,234.9
2019-07-07T06:59:20,42.805,6.029,-0.043,0.017,-0.039,102.0,105.0,98.0,13.4,1505.4,326.7,-0.7,1.8,2469.995,13.34,0.046,291.6
2019-07-07T07:02:21,42.805,6.029,-0.018,-0.009,-0.054,102.0,105.0,96.0,13.4,1505.4,323.5,-0.7,1.8,2469.977,13.34,0.02,243.4
2019-07-07T07:05:22,42.805,6.029,-0.009,-0.005,-0.041,103.0,104.0,100.0,13.4,1505.4,325.4,-0.7,1.8,2469.988,13.34,0.01,240.9
2019-07-07T07:08:23,42.805,6.029,-0.029,-0.005,-0.045,103.0,104.0,100.0,13.4,1505.4,328.4,-0.7,1.9,2470.016,13.34,0.029,260.2
2019-07-07T07:11:24,42.805,6.029,-0.011,0.015,-0.036,104.0,104.0,98.0,13.4,1505.4,325.9,-0.7,1.9,2469.984,13.34,0.018,323.7
2019-07-07T07:14:25,42.805,6.029,-0.017,0.007,-0.026,102.0,105.0,99.0,13.4,1505.4,328.1,-0.7,1.8,2470.011,13.34,0.018,292.4
2019-07-07T07:17:26,42.805,6.029,-0.036,-0.009,-0.039,102.0,104.0,97.0,13.4,1505.4,327.2,-0.7,1.8,2469.99,13.34,0.037,256.0
2019-07-07T07:20:27,42.805,6.029,-0.01,0.004,-0.046,103.0,105.0,100.0,13.4,1505.4,325.2,-0.7,1.8,2469.986,13.34,0.01,291.8
2019-07-07T07:23:28,42.805,6.029,-0.037,-0.006,-0.087,103.0,104.0,98.0,13.4,1505.4,325.8,-0.7,1.8,2469.997,13.34,0.037,260.8
2019-07-07T07:26:29,42.805,6.029,-0.02,0.013,-0.035,104.0,106.0,98.0,13.4,1505.4,324.8,-0.7,1.9,2469.992,13.34,0.023,303.0
2019-07-07T07:29:30,42.805,6.029,-0.021,-0.008,-0.048,102.0,105.0,99.0,13.4,1505.4,326.5,-0.8,1.8,2470.018,13.34,0.022,249.1
2019-07-07T07:32:31,42.805,6.029,-0.031,0.0,-0.055,103.0,106.0,100.0,13.3,1505.4,326.6,-0.7,1.8,2470.01,13.34,0.03,270.0
2019-07-07T07:35:32,42.805,6.029,-0.016,-0.021,-0.042,102.0,103.0,99.0,13.4,1505.4,327.0,-0.7,1.8,2469.999,13.34,0.026,217.3
2019-07-07T07:38:33,42.805,6.029,-0.016,0.009,-0.034,103.0,104.0,99.0,13.3,1505.4,327.3,-0.7,1.8,2469.984,13.34,0.018,299.4
2019-07-07T07:41:34,42.805,6.029,-0.018,0.007,-0.043,101.0,102.0,99.0,13.4,1505.4,327.7,-0.7,1.8,2469.987,13.34,0.019,291.2
2019-07-07T07:44:35,42.805,6.029,-0.018,0.004,-0.039,102.0,103.0,98.0,13.4,1505.4,325.0,-0.7,1.8,2469.996,13.34,0.018,282.5
2019-07-07T07:47:36,42.805,6.029,-0.017,0.023,-0.025,101.0,106.0,99.0,13.4,1505.4,324.0,-0.7,1.8,2470.021,13.34,0.028,323.5
2019-07-07T07:50:37,42.805,6.029,-0.045,0.004,-0.083,102.0,105.0,99.0,13.4,1505.4,328.0,-0.7,1.9,2470.04,13.34,0.045,275.1
2019-07-07T07:53:38,42.805,6.029,-0.033,-0.01,-0.052,102.0,103.0,100.0,13.4,1505.4,325.0,-0.7,1.9,2470.036,13.34,0.034,253.1
2019-07-07T07:56:39,42.805,6.029,-0.024,0.0,-0.054,103.0,102.0,98.0,13.4,1505.4,323.3,-0.7,1.8,2469.986,13.34,0.024,270.0
2019-07-07T07:59:40,42.805,6.029,-0.008,0.011,-0.053,103.0,103.0,98.0,13.4,1505.4,328.1,-0.8,1.9,2470.018,13.34,0.013,324.0
2019-07-07T08:02:41,42.805,6.029,0.01,-0.014,-0.04,100.0,105.0,98.0,13.4,1505.4,325.7,-0.7,1.8,2470.046,13.34,0.017,144.5
2019-07-07T08:05:42,42.805,6.029,-0.031,0.003,-0.022,102.0,104.0,98.0,13.4,1505.4,325.4,-0.7,1.8,2470.028,13.34,0.031,275.5
2019-07-07T08:08:43,42.805,6.029,-0.027,0.001,-0.052,100.0,106.0,98.0,13.4,1505.4,325.1,-0.7,1.8,2470.01,13.34,0.027,272.1
2019-07-07T08:11:44,42.805,6.029,-0.038,0.002,-0.078,99.0,104.0,97.0,13.4,1505.4,322.9,-0.7,1.9,2470.099,13.34,0.038,273.0
2019-07-07T08:14:45,42.805,6.029,-0.023,0.004,-0.019,102.0,104.0,97.0,13.4,1505.4,325.1,-0.7,1.8,2469.998,13.34,0.023,279.9
2019-07-07T08:17:46,42.805,6.029,-0.024,0.001,-0.061,101.0,105.0,97.0,13.4,1505.4,326.2,-0.7,1.8,2470.069,13.34,0.024,272.4
2019-07-07T08:20:47,42.805,6.029,-0.008,0.014,-0.023,100.0,105.0,98.0,13.3,1505.4,326.2,-0.7,1.8,2470.052,13.34,0.016,330.3
2019-07-07T08:23:48,42.805,6.029,-0.025,0.0,-0.036,102.0,105.0,97.0,13.4,1505.4,325.6,-0.8,1.8,2470.102,13.34,0.025,270.0
2019-07-07T08:26:49,42.805,6.029,-0.023,-0.001,-0.026,100.0,106.0,101.0,13.4,1505.4,325.4,-0.7,1.8,2470.039,13.34,0.023,267.5
2019-07-07T08:29:50,42.805,6.029,-0.016,0.001,-0.06,102.0,106.0,95.0,13.4,1505.4,326.7,-0.7,1.8,2470.034,13.34,0.016,273.6
2019-07-07T08:32:51,42.805,6.029,-0.03,-0.001,-0.061,101.0,105.0,98.0,13.4,1505.4,324.1,-0.7,1.9,2470.069,13.34,0.03,268.1
2019-07-07T08:35:52,42.805,6.029,-0.007,0.017,-0.016,102.0,105.0,98.0,13.4,1505.4,327.5,-0.7,1.8,2470.015,13.34,0.018,337.6
2019-07-07T08:38:53,42.805,6.029,-0.012,-0.004,-0.039,103.0,104.0,98.0,13.4,1505.4,327.7,-0.7,1.8,2470.039,13.34,0.012,251.6
2019-07-07T08:41:54,42.805,6.029,-0.009,-0.002,-0.015,102.0,106.0,99.0,13.4,1505.4,324.2,-0.7,1.8,2470.056,13.34,0.009,257.5
2019-07-07T08:44:55,42.805,6.029,-0.012,0.029,-0.028,102.0,104.0,100.0,13.3,1505.4,324.0,-0.7,1.8,2470.05,13.34,0.031,337.5
2019-07-07T08:47:56,42.805,6.029,-0.002,-0.004,-0.038,102.0,104.0,98.0,13.4,1505.4,327.6,-0.7,1.8,2470.034,13.34,0.004,206.6
2019-07-07T08:50:57,42.805,6.029,0.002,0.006,-0.023,103.0,105.0,99.0,13.3,1505.4,325.2,-0.7,1.8,2470.046,13.34,0.006,18.4
2019-07-07T08:53:58,42.805,6.029,-0.034,0.003,-0.056,103.0,105.0,101.0,13.3,1505.4,325.9,-0.7,1.9,2470.033,13.34,0.034,275.0
2019-07-07T08:56:59,42.805,6.029,-0.027,0.003,-0.04,103.0,105.0,99.0,13.4,1505.4,324.8,-0.8,1.8,2470.086,13.34,0.027,276.3
2019-07-07T09:00:00,42.805,6.029,-0.022,0.004,-0.029,103.0,105.0,99.0,13.4,1505.4,323.5,-0.7,1.8,2470.048,13.34,0.022,280.3
2019-07-07T09:03:01,42.805,6.029,-0.012,0.002,-0.037,102.0,105.0,98.0,13.4,1505.4,328.1,-0.7,1.9,2470.052,13.34,0.012,279.5
2019-07-07T09:06:02,42.805,6.029,0.002,-0.012,-0.046,101.0,103.0,100.0,13.4,1505.4,325.8,-0.7,1.8,2470.078,13.34,0.012,170.5
2019-07-07T09:09:03,42.805,6.029,0.002,0.019,-0.016,103.0,104.0,99.0,13.4,1505.4,324.9,-0.7,1.8,2470.071,13.34,0.019,6.0
2019-07-07T09:12:04,42.805,6.029,-0.024,-0.001,-0.035,104.0,104.0,100.0,13.4,1505.4,326.1,-0.7,1.8,2470.045,13.34,0.024,267.6
2019-07-07T09:15:05,42.805,6.029,-0.031,0.0,-0.04,101.0,104.0,99.0,13.4,1505.4,325.8,-0.7,1.8,2470.122,13.34,0.03,270.0
2019-07-07T09:18:06,42.805,6.029,-0.02,0.018,-0.039,103.0,108.0,97.0,13.4,1505.4,327.2,-0.7,1.9,2470.094,13.34,0.026,312.0
2019-07-07T09:21:07,42.805,6.029,-0.024,0.005,-0.044,102.0,106.0,99.0,13.4,1505.4,324.2,-0.7,1.9,2470.04,13.34,0.024,281.8
2019-07-07T09:24:08,42.805,6.029,-0.02,0.001,-0.024,101.0,106.0,99.0,13.4,1505.4,327.0,-0.7,1.9,2470.063,13.34,0.02,272.9
2019-07-07T09:27:09,42.805,6.029,-0.01,0.017,-0.032,101.0,104.0,98.0,13.4,1505.4,325.8,-0.7,1.9,2470.096,13.34,0.019,329.5
2019-07-07T09:30:10,42.805,6.029,0.005,0.005,-0.009,102.0,102.0,99.0,13.3,1505.4,326.3,-0.7,1.9,2470.083,13.34,0.007,45.0
2019-07-07T09:33:11,42.805,6.029,0.006,0.006,0.009,101.0,103.0,98.0,13.3,1505.4,323.6,-0.7,1.9,2470.107,13.34,0.008,45.0
2019-07-07T09:36:12,42.805,6.029,-0.01,-0.008,-0.03,100.0,102.0,98.0,13.4,1505.4,323.7,-0.7,1.8,2470.118,13.34,0.012,231.3